User: anonymous   Login
Location: Prague
(50.0830°N, 14.4670°E)
Time: 16:05:45
(UTC+02:00)
Language:

Oscar 19 - Orbit

View from above orbital plane
View from above orbital plane
View from above satellite
View from above satellite

Ground track
Ground track

The orbit data is extracted from the following two-line orbital elements,

1 20442U 90005G   23085.93284830  .00000493  00000-0  19614-3 0  9991
2 20442  98.8364  60.7275 0012782  62.5459 297.7022 14.33208654733569
Epoch (UTC): 26 March 2023 22:23:18
Eccentricity: 0.0012782
inclination: 98.8364°
perigee height: 772 km
apogee height: 790 km
right ascension of ascending node: 60.7275°
argument of perigee: 62.5459°
revolutions per day: 14.33208654
mean anomaly at epoch: 297.7022°
orbit number at epoch: 73356

The dashed part of the orbit path shows where the satellite is in the earth's shadow,  

DLR